UAL2642 KRDU-KIAD

Flight info

Callsign UAL2642
Flight time 0h 42m
Altitude 33000
Route OXFRD5 CARML DORRN CAVLR6
Aircraft A319/M-SDE3FGHIRWY/LB1

Departure

Time 2026-05-06 23:48
Airport Raleigh-Durham International Airport (KRDU)

Arrival

Time 2026-05-07 00:30
Airport Washington Dulles International Airport (KIAD)
Time Latitude Longitude Altitude Speed Heading
2026-05-06 23:26 35.87582 -78.79627 426 ft 0 kts 135°
2026-05-06 23:36 35.87587 -78.79632 417 ft 3 kts 128°
2026-05-06 23:36 35.87594 -78.79654 420 ft 3 kts 54°
2026-05-06 23:36 35.87589 -78.79662 421 ft 0 kts 32°
2026-05-06 23:37 35.87591 -78.79661 419 ft 1 kts 30°
2026-05-06 23:38 35.87600 -78.79659 423 ft 2 kts
2026-05-06 23:38 35.87624 -78.79661 426 ft 5 kts 354°
2026-05-06 23:38 35.87664 -78.79666 423 ft 7 kts 354°
2026-05-06 23:38 35.87721 -78.79652 420 ft 10 kts 24°
2026-05-06 23:39 35.87783 -78.79590 423 ft 13 kts 44°
2026-05-06 23:39 35.87854 -78.79501 423 ft 17 kts 45°
2026-05-06 23:39 35.87945 -78.79388 422 ft 20 kts 45°
2026-05-06 23:39 35.88039 -78.79275 423 ft 19 kts 45°
2026-05-06 23:40 35.88095 -78.79154 426 ft 16 kts 94°
2026-05-06 23:40 35.88144 -78.79035 425 ft 17 kts 44°
2026-05-06 23:40 35.88237 -78.78921 422 ft 22 kts 45°
2026-05-06 23:40 35.88353 -78.78777 418 ft 25 kts 45°
2026-05-06 23:41 35.88481 -78.78619 426 ft 27 kts 45°
2026-05-06 23:41 35.88620 -78.78448 421 ft 29 kts 45°
2026-05-06 23:41 35.88764 -78.78269 422 ft 28 kts 45°
2026-05-06 23:41 35.88892 -78.78111 425 ft 27 kts 45°
2026-05-06 23:42 35.88986 -78.77955 423 ft 22 kts 73°
2026-05-06 23:42 35.89072 -78.77810 420 ft 19 kts 45°
2026-05-06 23:42 35.89161 -78.77699 418 ft 16 kts 45°
2026-05-06 23:42 35.89233 -78.77653 422 ft 11 kts 339°
2026-05-06 23:43 35.89262 -78.77681 427 ft 0 kts 316°
2026-05-06 23:45 35.89267 -78.77686 427 ft 2 kts 316°
2026-05-06 23:45 35.89279 -78.77701 427 ft 3 kts 316°
2026-05-06 23:45 35.89300 -78.77726 427 ft 3 kts 315°
2026-05-06 23:45 35.89302 -78.77728 427 ft 0 kts 315°
2026-05-06 23:46 35.89304 -78.77731 427 ft 2 kts 315°
2026-05-06 23:46 35.89343 -78.77779 419 ft 12 kts 313°
2026-05-06 23:46 35.89324 -78.77872 419 ft 8 kts 226°
2026-05-06 23:47 35.89304 -78.77898 423 ft 17 kts 226°
2026-05-06 23:47 35.89067 -78.78190 426 ft 79 kts 225°
2026-05-06 23:47 35.88538 -78.78846 425 ft 135 kts 225°
2026-05-06 23:47 35.87842 -78.79723 935 ft 142 kts 225°
2026-05-06 23:48 35.87154 -78.80590 1616 ft 141 kts 230°
2026-05-06 23:48 35.86450 -78.81440 2243 ft 147 kts 227°
2026-05-06 23:48 35.85664 -78.82390 2645 ft 170 kts 226°
2026-05-06 23:48 35.84761 -78.83499 3087 ft 196 kts 227°
2026-05-06 23:49 35.83733 -78.84751 3646 ft 220 kts 227°
2026-05-06 23:49 35.82577 -78.86143 4341 ft 241 kts 227°
2026-05-06 23:49 35.81404 -78.87687 5322 ft 247 kts 238°
2026-05-06 23:49 35.80814 -78.89634 5776 ft 249 kts 264°
2026-05-06 23:50 35.81077 -78.91724 5951 ft 252 kts 291°
2026-05-06 23:50 35.83643 -78.94786 7169 ft 273 kts 331°
2026-05-06 23:50 35.85562 -78.95222 8117 ft 293 kts 358°
2026-05-06 23:51 35.87559 -78.94450 9061 ft 311 kts 23°
2026-05-06 23:51 35.89467 -78.93156 10019 ft 315 kts 24°
2026-05-06 23:51 35.91440 -78.91789 10483 ft 338 kts 25°
2026-05-06 23:51 35.93559 -78.90319 10844 ft 358 kts 25°
2026-05-06 23:52 35.95754 -78.88792 11537 ft 366 kts 25°
2026-05-06 23:52 35.97982 -78.87243 12355 ft 369 kts 24°
2026-05-06 23:52 36.00229 -78.85688 13198 ft 372 kts 24°
2026-05-06 23:52 36.02501 -78.84123 13997 ft 375 kts 24°
2026-05-06 23:53 36.04790 -78.82552 14715 ft 379 kts 23°
2026-05-06 23:53 36.07104 -78.80961 15404 ft 383 kts 23°
2026-05-06 23:53 36.09443 -78.79348 16096 ft 387 kts 22°
2026-05-06 23:53 36.11803 -78.77719 16796 ft 391 kts 22°
2026-05-06 23:54 36.14194 -78.76067 17493 ft 395 kts 22°
2026-05-06 23:54 36.16605 -78.74404 18181 ft 399 kts 21°
2026-05-06 23:54 36.19046 -78.72721 18778 ft 403 kts 21°
2026-05-06 23:54 36.21511 -78.71020 19363 ft 408 kts 21°
2026-05-06 23:55 36.24000 -78.69297 19957 ft 412 kts 21°
2026-05-06 23:55 36.26516 -78.67553 20554 ft 417 kts 22°
2026-05-06 23:55 36.29060 -78.65785 21145 ft 421 kts 22°
2026-05-06 23:55 36.31627 -78.64002 21727 ft 425 kts 22°
2026-05-06 23:56 36.34220 -78.62206 22300 ft 428 kts 21°
2026-05-06 23:56 36.36938 -78.60739 22841 ft 424 kts 11°
2026-05-06 23:56 36.39762 -78.59709 23379 ft 425 kts
2026-05-06 23:56 36.42622 -78.58699 23842 ft 429 kts
2026-05-06 23:57 36.45499 -78.57680 24291 ft 432 kts
2026-05-06 23:57 36.48405 -78.56643 24727 ft 436 kts
2026-05-06 23:57 36.51332 -78.55593 25154 ft 439 kts
2026-05-06 23:57 36.54275 -78.54531 25581 ft 443 kts
2026-05-06 23:58 36.57250 -78.53459 25996 ft 446 kts
2026-05-06 23:58 36.60245 -78.52382 26414 ft 450 kts
2026-05-06 23:58 36.63264 -78.51296 26829 ft 453 kts
2026-05-06 23:58 36.66304 -78.50202 27246 ft 457 kts
2026-05-06 23:59 36.69368 -78.49097 27654 ft 460 kts
2026-05-06 23:59 36.72457 -78.47963 28051 ft 466 kts 11°
2026-05-06 23:59 36.75482 -78.46376 28441 ft 479 kts 21°
2026-05-06 23:59 36.78354 -78.44191 28813 ft 487 kts 27°
2026-05-07 00:00 36.81201 -78.41874 28946 ft 491 kts 27°
2026-05-07 00:00 36.84090 -78.39527 28967 ft 501 kts 27°
2026-05-07 00:00 36.90055 -78.34699 28953 ft 520 kts 27°
2026-05-07 00:01 36.96181 -78.29726 28940 ft 528 kts 27°
2026-05-07 00:01 37.02339 -78.24692 28923 ft 529 kts 27°
2026-05-07 00:02 37.08501 -78.19644 28927 ft 530 kts 27°
2026-05-07 00:02 37.14679 -78.14577 28925 ft 531 kts 27°
2026-05-07 00:03 37.20864 -78.09498 28925 ft 531 kts 27°
2026-05-07 00:03 37.27050 -78.04434 28925 ft 531 kts 27°
2026-05-07 00:04 37.30141 -78.01898 28694 ft 530 kts 27°
2026-05-07 00:04 37.33222 -77.99362 28378 ft 528 kts 27°
2026-05-07 00:04 37.36355 -77.97006 28110 ft 520 kts 19°
2026-05-07 00:04 37.39681 -77.95345 27857 ft 512 kts 11°
2026-05-07 00:05 37.43044 -77.93853 27584 ft 512 kts 11°
2026-05-07 00:05 37.46401 -77.92373 26891 ft 511 kts 11°
2026-05-07 00:05 37.49761 -77.90892 26212 ft 511 kts 11°
2026-05-07 00:05 37.53114 -77.89402 25526 ft 512 kts 12°
2026-05-07 00:06 37.56441 -77.87774 24813 ft 514 kts 14°
2026-05-07 00:06 37.59731 -77.85977 24119 ft 516 kts 16°
2026-05-07 00:06 37.62992 -77.84063 23418 ft 518 kts 17°
2026-05-07 00:06 37.66236 -77.82099 22681 ft 514 kts 18°
2026-05-07 00:07 37.69405 -77.80191 22261 ft 494 kts 17°
2026-05-07 00:07 37.72473 -77.78391 21555 ft 481 kts 16°
2026-05-07 00:07 37.75512 -77.76683 20931 ft 475 kts 15°
2026-05-07 00:07 37.78529 -77.75037 20357 ft 470 kts 15°
2026-05-07 00:08 37.81524 -77.73419 19772 ft 466 kts 15°
2026-05-07 00:08 37.84488 -77.71812 19157 ft 461 kts 15°
2026-05-07 00:08 37.87380 -77.70222 18825 ft 441 kts 15°
2026-05-07 00:08 37.90095 -77.68695 18704 ft 412 kts 15°
2026-05-07 00:09 37.92617 -77.67260 18593 ft 384 kts 15°
2026-05-07 00:09 37.94982 -77.65919 18342 ft 364 kts 14°
2026-05-07 00:09 37.97266 -77.64640 17758 ft 355 kts 14°
2026-05-07 00:09 37.99511 -77.63398 17079 ft 350 kts 14°
2026-05-07 00:10 38.01736 -77.62175 16394 ft 347 kts 14°
2026-05-07 00:10 38.03939 -77.60961 15708 ft 344 kts 15°
2026-05-07 00:10 38.06117 -77.59738 15056 ft 341 kts 17°
2026-05-07 00:10 38.08254 -77.58447 14419 ft 340 kts 19°
2026-05-07 00:11 38.10363 -77.57103 13804 ft 337 kts 20°
2026-05-07 00:11 38.12441 -77.55750 13156 ft 334 kts 21°
2026-05-07 00:11 38.14500 -77.54409 12493 ft 331 kts 21°
2026-05-07 00:11 38.16513 -77.53107 11900 ft 329 kts 21°
2026-05-07 00:12 38.18578 -77.51778 11472 ft 326 kts 21°
2026-05-07 00:12 38.20581 -77.50494 10926 ft 324 kts 21°
2026-05-07 00:12 38.22608 -77.49199 10350 ft 320 kts 21°
2026-05-07 00:12 38.24629 -77.48111 9880 ft 311 kts 10°
2026-05-07 00:13 38.26679 -77.47406 9676 ft 309 kts
2026-05-07 00:13 38.28752 -77.46685 9434 ft 308 kts
2026-05-07 00:13 38.30814 -77.45954 9194 ft 307 kts
2026-05-07 00:13 38.32862 -77.45223 8958 ft 305 kts
2026-05-07 00:14 38.34905 -77.44495 8735 ft 304 kts
2026-05-07 00:14 38.36933 -77.43771 8500 ft 302 kts
2026-05-07 00:14 38.38953 -77.43052 8270 ft 301 kts
2026-05-07 00:14 38.40964 -77.42342 8036 ft 299 kts
2026-05-07 00:15 38.42960 -77.41635 7808 ft 297 kts
2026-05-07 00:15 38.44973 -77.40921 7577 ft 296 kts
2026-05-07 00:15 38.46950 -77.40218 7350 ft 294 kts
2026-05-07 00:15 38.48886 -77.39531 7120 ft 292 kts
2026-05-07 00:16 38.50840 -77.38843 6887 ft 290 kts
2026-05-07 00:16 38.52782 -77.38204 6669 ft 287 kts
2026-05-07 00:16 38.54713 -77.37592 6451 ft 285 kts
2026-05-07 00:16 38.56639 -77.36991 6232 ft 284 kts
2026-05-07 00:17 38.58555 -77.36440 6004 ft 280 kts
2026-05-07 00:17 38.60479 -77.36318 5804 ft 276 kts 355°
2026-05-07 00:17 38.62402 -77.36262 5599 ft 277 kts 355°
2026-05-07 00:17 38.64323 -77.36194 5411 ft 276 kts 356°
2026-05-07 00:18 38.66241 -77.36120 5213 ft 276 kts 356°
2026-05-07 00:18 38.68155 -77.36045 5011 ft 275 kts 356°
2026-05-07 00:18 38.70067 -77.35972 4810 ft 273 kts 357°
2026-05-07 00:18 38.71962 -77.35903 4604 ft 273 kts 357°
2026-05-07 00:19 38.73863 -77.35833 4407 ft 273 kts 357°
2026-05-07 00:19 38.75759 -77.35761 4208 ft 272 kts 358°
2026-05-07 00:19 38.77647 -77.35691 4059 ft 272 kts 358°
2026-05-07 00:19 38.79533 -77.35623 4008 ft 271 kts 358°
2026-05-07 00:20 38.81422 -77.35556 4012 ft 272 kts 357°
2026-05-07 00:20 38.83318 -77.35491 4007 ft 272 kts 358°
2026-05-07 00:20 38.85205 -77.35426 4007 ft 271 kts 358°
2026-05-07 00:20 38.87093 -77.35360 4008 ft 271 kts 358°
2026-05-07 00:21 38.88973 -77.35293 4007 ft 271 kts 358°
2026-05-07 00:21 38.90857 -77.35223 4010 ft 270 kts 358°
2026-05-07 00:21 38.92731 -77.35152 4003 ft 266 kts 358°
2026-05-07 00:21 38.94524 -77.35082 3984 ft 250 kts 358°
2026-05-07 00:22 38.96228 -77.35016 3866 ft 238 kts 358°
2026-05-07 00:22 38.97840 -77.34956 3691 ft 228 kts 358°
2026-05-07 00:22 38.99412 -77.34899 3387 ft 224 kts 358°
2026-05-07 00:22 39.00963 -77.34843 3096 ft 221 kts 358°
2026-05-07 00:23 39.02517 -77.34787 3000 ft 220 kts 358°
2026-05-07 00:23 39.04046 -77.34733 3010 ft 219 kts 358°
2026-05-07 00:23 39.05569 -77.34681 3021 ft 218 kts 358°
2026-05-07 00:23 39.07070 -77.34630 3015 ft 219 kts 358°
2026-05-07 00:24 39.08596 -77.34580 3028 ft 220 kts 358°
2026-05-07 00:24 39.09626 -77.34545 3026 ft 219 kts 358°
2026-05-07 00:24 39.11153 -77.34493 3034 ft 219 kts 357°
2026-05-07 00:24 39.12667 -77.34559 3023 ft 215 kts 342°
2026-05-07 00:25 39.13908 -77.35523 3034 ft 210 kts 308°
2026-05-07 00:25 39.14441 -77.37815 3038 ft 208 kts 263°
2026-05-07 00:25 39.14129 -77.39004 3045 ft 211 kts 242°
2026-05-07 00:25 39.13201 -77.40480 3043 ft 213 kts 230°
2026-05-07 00:26 39.12084 -77.41742 3044 ft 217 kts 216°
2026-05-07 00:26 39.10712 -77.42577 3040 ft 216 kts 205°
2026-05-07 00:26 39.09366 -77.43250 3046 ft 200 kts 203°
2026-05-07 00:26 39.07980 -77.43451 2769 ft 200 kts 182°
2026-05-07 00:27 39.06608 -77.43442 2498 ft 195 kts 184°
2026-05-07 00:27 39.05274 -77.43453 2238 ft 185 kts 183°
2026-05-07 00:27 39.04057 -77.43468 1984 ft 165 kts 184°
2026-05-07 00:27 39.02953 -77.43484 1768 ft 154 kts 184°
2026-05-07 00:28 39.01896 -77.43501 1570 ft 151 kts 183°
2026-05-07 00:28 39.00857 -77.43517 1375 ft 149 kts 182°
2026-05-07 00:28 38.99823 -77.43533 1170 ft 148 kts 184°
2026-05-07 00:28 38.98804 -77.43547 974 ft 144 kts 183°
2026-05-07 00:29 38.97818 -77.43563 792 ft 141 kts 182°
2026-05-07 00:29 38.96849 -77.43575 617 ft 138 kts 182°
2026-05-07 00:30 38.94210 -77.43619 302 ft 83 kts 180°
2026-05-07 00:30 38.93795 -77.43625 300 ft 41 kts 180°
2026-05-07 00:30 38.93547 -77.43644 302 ft 34 kts 195°
2026-05-07 00:30 38.93379 -77.43754 303 ft 7 kts 211°
2026-05-07 00:31 38.93377 -77.43755 303 ft 0 kts 211°
2026-05-07 00:31 38.93369 -77.43762 300 ft 0 kts 211°
2026-05-07 00:32 38.93368 -77.43762 300 ft 0 kts 211°
2026-05-07 00:32 38.93356 -77.43771 300 ft 5 kts 211°
2026-05-07 00:32 38.93325 -77.43817 301 ft 10 kts 252°
2026-05-07 00:32 38.93374 -77.43876 301 ft 13 kts 354°
2026-05-07 00:33 38.93487 -77.43875 301 ft 19 kts
2026-05-07 00:33 38.93642 -77.43874 300 ft 25 kts
2026-05-07 00:33 38.93816 -77.43870 300 ft 25 kts
2026-05-07 00:33 38.93993 -77.43868 301 ft 26 kts
2026-05-07 00:34 38.94171 -77.43866 302 ft 26 kts
2026-05-07 00:34 38.94353 -77.43863 302 ft 26 kts
2026-05-07 00:34 38.94491 -77.43860 301 ft 26 kts
2026-05-07 00:34 38.94616 -77.43867 300 ft 14 kts 338°
2026-05-07 00:35 38.94648 -77.43983 300 ft 16 kts 275°
2026-05-07 00:35 38.94652 -77.44130 300 ft 17 kts 271°
2026-05-07 00:35 38.94653 -77.44282 300 ft 17 kts 270°
2026-05-07 00:35 38.94654 -77.44401 301 ft 8 kts 270°
2026-05-07 00:36 38.94654 -77.44460 300 ft 7 kts 271°
2026-05-07 00:36 38.94655 -77.44526 302 ft 10 kts 270°
2026-05-07 00:36 38.94656 -77.44623 300 ft 11 kts 271°
2026-05-07 00:36 38.94658 -77.44739 300 ft 14 kts 270°
2026-05-07 00:37 38.94644 -77.44813 301 ft 4 kts 195°
2026-05-07 00:37 38.94614 -77.44805 304 ft 5 kts 161°
2026-05-07 00:37 38.94584 -77.44792 301 ft 3 kts 162°
2026-05-07 00:37 38.94574 -77.44788 301 ft 0 kts 162°